Theta_e
312 312 313 314 313 312 313 313 313 314 315 316 316 317 318 320 319 317 318 319 320 319 318 319 319 320 318 317 316 314 307 308 313 314 316 315 314 317 317 318 318 318 318 318 318
312 312 312 312 313 314 313 312 313 313 313 314 314 314 317 319 318 318 319 319 319 318 318 319 320 320 319 317 315 309 307 310 310 313 315 314 315 317 317 317 318 318 318 320 320
312 312 313 312 312 312 312 314 312 312 312 312 311 312 315 323 318 318 319 319 319 319 319 319 319 320 318 317 317 311 311 310 313 314 318 315 317 317 317 316 318 318 319 319 320
314 314 312 312 313 313 312 312 313 312 312 312 312 312 317 319 314 318 319 319 319 319 320 319 318 318 314 316 316 317 315 316 318 318 318 316 318 317 317 319 319 319 320 320 320
312 312 314 314 312 313 313 312 312 314 312 312 312 313 316 317 317 317 318 317 318 319 319 320 318 317 315 315 316 316 316 317 318 317 316 317 317 317 318 319 319 320 320 320 319
312 312 312 313 315 311 312 313 313 316 315 312 313 315 317 316 316 316 316 316 316 317 317 318 318 319 316 315 315 316 315 316 319 318 319 318 317 317 319 320 323 322 321 321 320
316 313 311 314 313 313 315 315 316 318 319 316 315 317 319 318 317 316 317 317 317 317 316 316 316 318 317 315 316 315 317 315 318 318 318 317 319 317 319 323 321 321 320 320 320
315 316 313 311 314 314 316 317 319 318 319 318 317 318 320 320 318 316 316 317 317 316 316 317 316 318 318 317 317 316 313 315 316 315 318 317 318 318 321 322 320 320 320 320 320
316 314 314 308 314 314 318 319 318 317 320 318 317 320 321 320 319 316 316 316 316 316 317 317 317 317 317 315 315 314 316 316 315 315 318 318 318 319 321 321 320 320 320 319 320
314 315 313 308 313 314 318 319 318 321 320 317 320 321 320 319 319 319 317 317 319 319 319 318 317 313 310 313 318 319 317 315 315 316 317 317 320 320 321 321 320 320 319 319 319
312 313 312 308 311 315 318 319 317 317 317 317 317 316 317 319 319 319 317 317 319 319 315 315 314 316 316 314 315 317 318 317 315 315 317 317 320 321 321 321 320 320 319 319 319
308 311 310 309 311 316 318 317 317 318 317 317 319 318 319 319 318 318 317 317 317 316 315 313 316 316 315 315 315 317 318 317 315 316 316 316 319 321 321 321 321 320 320 319 319
307 308 309 309 312 316 317 317 319 319 316 317 320 321 320 318 318 317 317 316 316 316 315 316 316 316 317 318 318 317 318 317 317 316 316 317 321 322 321 321 321 320 320 320 319
306 307 310 309 314 317 318 317 317 321 317 322 320 317 317 316 316 317 317 316 315 316 316 314 314 316 317 318 316 318 317 316 317 318 318 317 319 320 322 321 320 320 320 320 320
306 308 316 312 309 316 318 317 316 320 322 321 317 317 317 316 317 317 317 316 316 315 314 315 315 314 315 315 316 316 317 318 320 319 317 318 316 317 321 323 320 320 321 320 320
306 315 311 311 315 317 317 317 318 321 324 319 317 315 317 317 317 318 317 317 316 315 312 314 314 314 314 314 315 316 319 315 313 311 314 319 318 316 322 323 320 319 320 320 320
307 316 316 316 316 316 318 317 318 322 319 318 316 315 316 316 317 315 314 313 314 316 314 312 313 313 313 313 313 314 314 313 317 316 316 316 318 318 320 322 321 319 319 319 319
307 317 318 318 316 315 317 315 323 319 318 318 316 315 317 316 316 316 315 314 313 312 311 313 313 313 313 313 314 315 317 314 314 316 318 316 319 320 320 322 320 319 317 317 319
310 316 319 319 318 317 317 315 318 319 317 316 315 315 315 316 317 316 316 314 314 313 315 313 314 312 314 313 317 320 320 317 312 311 317 316 315 315 319 318 317 318 317 317 319
308 312 319 319 317 317 313 315 316 317 316 315 314 315 316 316 316 316 317 316 317 314 312 312 313 313 312 317 317 318 318 318 313 313 322 318 317 317 318 318 316 315 317 317 318
306 315 319 318 315 316 316 314 316 316 316 315 314 315 316 316 316 317 318 318 317 314 312 312 311 314 312 316 318 316 317 317 314 313 317 317 317 314 320 317 315 314 317 316 317
308 311 319 317 315 312 316 317 317 316 316 316 315 315 315 316 317 318 319 318 317 315 314 311 308 311 312 312 313 318 319 316 321 322 318 321 321 318 317 315 315 315 317 316 317
311 316 318 318 314 312 313 316 316 315 315 314 315 315 314 315 317 317 318 317 317 316 315 311 310 312 310 310 314 318 317 316 317 316 317 325 318 315 315 315 315 315 317 316 316
313 313 315 314 313 312 314 315 317 317 315 314 314 315 315 316 315 316 316 317 317 317 315 312 310 311 310 312 313 317 317 317 318 321 321 320 318 318 316 313 313 316 316 316 316
315 310 310 310 311 311 312 314 316 317 315 315 315 315 315 315 315 315 316 316 315 318 315 313 316 314 314 314 315 317 317 317 318 319 319 319 318 318 314 312 314 316 316 316 316
313 312 310 311 310 311 310 313 314 315 314 314 313 315 314 314 313 314 314 315 314 314 315 311 315 315 315 316 317 318 319 321 321 321 320 319 318 314 314 315 315 316 316 315 317
308 310 310 309 310 310 310 313 314 311 313 313 314 313 314 312 314 315 315 315 315 313 312 311 312 313 318 316 317 321 320 321 320 319 318 319 317 313 313 313 315 316 315 316 318
Wind_Speed
19 18 16 15 14 12 10 9 8 8 8 7 8 9 10 9 9 10 10 11 12 14 15 12 9 2 3 3 3 3 5 2 3 4 3 5 6 4 3 7 7 4 2 2 3
18 17 16 14 13 12 10 8 7 7 6 6 8 10 10 9 13 11 10 12 12 14 14 15 11 7 5 4 4 5 4 7 3 1 1 5 1 6 2 8 3 10 6 4 5
20 18 16 15 13 12 12 10 7 5 5 5 8 10 9 1 5 10 7 8 10 12 12 12 13 8 8 5 5 1 3 3 1 3 6 4 5 1 3 5 12 13 12 12 11
20 19 18 16 13 13 12 11 10 7 5 6 8 9 5 5 3 4 3 4 5 9 9 11 13 4 4 2 4 2 2 3 4 4 5 4 5 3 9 11 17 13 16 17 18
21 20 18 17 15 13 13 12 10 8 7 6 8 9 2 4 4 2 3 3 4 5 6 8 9 4 2 2 5 1 1 6 11 14 10 10 6 7 8 18 16 12 11 13 15
22 21 19 18 16 14 14 12 9 8 7 6 7 8 1 2 1 6 4 1 2 4 5 5 4 4 3 1 2 4 6 12 8 8 2 3 3 3 21 11 18 18 19 16 11
23 23 20 18 16 14 12 10 7 7 7 6 6 8 2 3 2 2 3 4 3 6 8 8 4 1 3 3 3 3 5 5 1 5 3 4 2 7 15 16 23 22 19 18 18
24 24 23 18 15 13 11 8 8 8 6 5 7 6 2 4 4 4 5 6 6 9 10 4 3 1 2 4 5 3 4 4 4 6 3 2 5 9 13 20 22 22 20 18 18
26 25 24 20 14 10 8 8 10 4 1 6 6 1 1 2 4 6 7 9 13 6 5 1 3 2 2 3 5 6 0 1 7 3 2 5 1 7 12 20 21 22 24 24 23
27 25 24 21 11 8 6 10 7 2 1 4 3 1 2 1 6 8 6 7 6 9 6 3 3 3 4 4 2 2 2 3 4 3 4 3 2 4 9 16 16 21 24 27 28
29 27 24 21 10 5 5 4 5 1 7 3 6 5 9 4 7 5 4 5 4 7 3 4 5 1 4 7 4 4 3 3 4 4 3 2 5 4 2 11 17 20 23 26 28
31 28 25 19 7 2 4 4 5 5 7 4 1 4 5 6 4 3 5 2 4 3 2 6 1 4 5 2 4 3 2 4 5 4 2 4 5 4 2 0 5 12 19 25 31
31 30 25 16 2 5 7 6 4 4 1 4 1 2 1 3 3 4 3 1 3 3 4 3 5 5 4 2 3 2 2 3 5 3 3 1 1 4 3 1 7 13 17 23 27
31 30 23 11 4 10 5 2 3 4 4 4 2 1 1 2 2 4 1 1 4 3 4 2 6 6 5 3 3 2 2 3 4 4 3 3 4 4 4 5 4 14 22 26 32
32 27 19 10 2 6 1 2 3 2 3 2 1 1 5 2 1 8 6 2 3 2 6 5 5 7 7 5 3 6 4 2 2 1 1 2 3 5 1 3 6 13 22 28 31
30 19 15 9 7 2 1 5 1 5 1 2 4 5 5 11 6 4 8 4 5 4 5 3 5 3 3 4 2 5 1 4 3 3 2 1 4 5 2 1 5 9 22 25 30
28 10 11 10 7 6 3 3 5 4 3 4 3 4 4 5 6 5 5 7 4 5 6 6 4 5 6 6 4 9 6 4 5 4 4 1 2 7 3 2 2 9 23 26 29
27 7 4 8 9 9 2 4 2 1 1 1 3 4 4 5 3 4 2 3 4 4 3 4 6 5 7 1 3 4 3 4 4 2 5 3 4 4 3 0 10 15 22 29 28
27 8 3 4 8 9 2 3 6 3 1 2 3 4 5 5 3 3 3 2 1 2 3 4 5 3 3 2 2 1 4 3 5 2 2 4 6 6 4 6 12 19 28 31 29
27 9 4 3 6 6 4 4 2 2 3 3 2 2 2 3 3 3 3 4 1 2 3 2 2 1 5 4 4 5 5 3 4 2 4 5 5 5 4 7 9 13 24 31 30
20 6 1 4 4 2 3 5 4 2 3 3 3 3 3 2 1 1 2 3 4 2 3 3 3 5 3 0 2 3 3 5 4 3 2 3 6 5 2 6 9 16 27 34 33
9 3 3 0 3 2 2 4 3 3 2 2 4 2 3 3 0 0 2 3 4 1 1 1 4 3 6 5 3 2 3 4 3 2 3 1 6 2 6 10 16 22 29 33 32
17 7 3 2 2 1 4 2 3 3 3 3 3 2 2 4 1 3 2 5 7 5 2 4 1 3 8 5 5 1 2 3 3 2 4 2 5 1 10 12 25 24 31 32 33
7 4 3 5 5 3 3 1 2 1 3 4 3 3 3 1 1 2 2 3 5 2 4 6 3 6 6 7 3 5 4 4 5 2 3 6 8 12 10 9 18 28 32 33 34
3 2 2 3 4 3 1 2 1 1 1 3 2 3 5 3 1 3 2 3 3 4 3 4 3 4 6 9 4 10 12 10 8 5 6 6 6 11 10 8 19 28 33 33 33
4 3 3 3 6 3 3 2 1 5 5 3 4 5 3 6 7 7 5 4 6 1 3 2 2 2 5 3 2 8 7 5 4 4 7 8 10 7 13 22 20 31 31 33 32
3 4 3 2 2 1 2 1 0 3 1 3 5 4 3 7 11 14 15 13 9 8 6 4 5 2 4 3 6 5 6 5 4 5 4 5 9 4 8 12 22 28 30 29 31
Wind_Direction
35 34 34 33 30 29 29 33 39 43 43 34 21 12 5 24 37 50 78 64 44 42 41 48 37 59 124 93 83 95 63 115 203 152 301 337 10 354 327 344 337 17 84 10 22
27 25 23 24 24 21 17 11 7 14 20 22 12 4 9 77 58 74 86 52 44 36 36 35 34 82 83 65 47 70 94 209 215 146 352 297 280 313 322 318 305 306 292 320 330
22 16 11 11 10 8 6 2 357 353 3 5 3 357 6 124 61 59 77 48 50 32 32 30 29 69 62 73 22 102 166 219 247 246 333 261 299 273 272 298 286 286 307 308 302
16 12 9 3 354 355 353 347 346 342 333 341 352 350 11 56 91 56 62 27 21 14 16 26 28 50 63 47 355 141 197 143 290 265 291 234 261 229 235 273 317 306 307 304 300
12 8 4 0 355 347 344 342 338 337 336 332 348 357 74 71 85 49 286 339 6 12 8 12 25 57 47 318 348 135 253 277 292 282 268 282 266 241 284 348 346 333 310 301 303
6 3 359 356 354 345 337 340 340 344 338 330 344 357 63 121 63 11 36 273 330 6 355 336 349 1 105 345 139 304 294 294 291 346 314 250 331 73 6 35 54 58 59 66 65
1 359 354 350 349 346 341 345 342 331 337 325 338 352 182 154 243 6 25 35 17 339 329 352 333 354 333 348 320 312 334 333 306 339 315 337 42 73 2 72 66 61 61 62 54
355 353 353 342 345 346 339 343 339 320 313 334 338 339 196 228 266 308 317 344 336 331 325 323 302 19 3 315 12 50 44 44 303 345 344 97 279 358 73 80 57 49 46 41 38
352 348 348 345 337 345 338 343 337 353 89 324 311 356 201 291 312 324 321 327 338 334 308 136 130 69 43 51 12 10 26 233 325 345 331 42 319 348 62 66 47 38 33 23 21
347 346 345 345 330 337 331 339 331 43 241 16 61 121 206 144 334 315 328 340 24 47 94 51 65 59 37 65 210 264 355 323 288 279 15 3 114 344 35 55 40 31 27 21 15
346 342 345 342 329 333 332 339 354 346 313 277 287 277 278 290 304 322 283 320 33 56 40 21 66 259 254 215 201 139 190 247 268 279 358 263 165 191 57 44 36 26 20 12 8
348 341 344 341 333 116 89 81 48 336 313 4 352 260 264 275 294 296 251 332 35 31 5 24 339 242 279 187 172 183 203 274 282 269 145 277 189 195 217 184 28 13 12 7 2
348 341 343 342 343 145 112 85 23 351 336 302 342 289 289 247 251 320 201 12 58 30 23 141 269 312 293 244 145 190 162 259 247 316 302 52 320 213 234 255 9 19 9 6 1
349 343 345 356 134 148 112 50 6 352 65 293 321 58 283 245 21 31 46 344 17 13 352 285 326 5 25 56 53 338 332 255 269 21 282 18 273 265 236 287 322 355 358 355 357
351 347 351 358 184 166 208 337 331 317 78 256 40 48 4 136 357 25 20 77 19 27 62 285 4 3 26 328 316 239 355 9 326 122 42 346 72 267 315 284 326 343 342 348 351
352 354 10 47 92 101 34 345 138 49 181 349 44 342 53 29 31 26 42 67 66 77 22 302 304 53 315 303 11 293 11 42 52 78 38 136 101 280 218 218 318 310 336 338 346
352 358 33 29 14 344 309 316 45 119 336 330 13 2 80 22 14 38 30 23 50 34 358 338 340 322 16 359 358 40 47 348 357 5 230 147 26 247 250 222 263 307 328 338 346
351 335 15 16 14 3 338 57 138 194 85 326 41 56 78 5 44 4 64 37 30 70 75 46 333 13 325 180 249 358 107 146 219 269 291 317 229 260 246 135 330 320 337 344 341
348 322 240 332 339 358 358 69 193 210 150 49 57 73 8 2 57 65 25 165 168 75 76 46 291 321 294 293 117 113 49 152 104 20 336 277 291 324 19 334 330 336 340 336 334
343 322 241 300 334 333 77 206 206 223 111 71 116 108 127 331 47 45 14 348 76 39 120 151 326 312 289 12 30 90 155 32 14 23 301 291 291 246 302 322 321 319 316 329 330
337 319 310 310 324 343 142 217 220 131 136 124 157 125 147 126 208 40 353 13 20 29 78 120 118 286 323 105 164 1 36 59 116 136 201 296 269 218 238 284 295 296 318 330 331
347 331 337 303 48 54 150 201 197 152 102 78 106 130 144 149 62 149 154 146 49 332 323 63 142 272 248 278 287 277 155 122 122 252 227 256 272 263 248 293 298 304 324 334 332
329 288 350 178 129 309 305 287 213 145 177 143 146 157 152 169 130 200 192 153 31 22 190 181 6 348 348 353 11 356 314 139 107 61 218 201 262 215 306 314 327 317 327 328 331
328 338 344 64 78 112 32 295 314 39 144 124 116 99 108 123 76 208 221 204 332 323 159 135 135 162 190 230 183 291 266 249 188 190 226 233 278 299 304 308 315 323 323 325 331
314 312 337 320 16 6 212 297 308 261 120 142 42 163 155 161 304 248 228 311 319 150 90 118 203 183 245 255 241 261 269 273 195 207 190 258 231 278 285 292 304 319 326 326 330
317 348 330 294 314 302 359 82 1 313 166 224 165 188 168 164 192 218 198 192 228 190 131 8 242 190 288 282 240 267 266 252 208 212 247 266 283 240 300 319 312 320 326 324 330
309 302 305 289 342 120 223 283 135 334 288 220 168 141 188 237 250 261 259 240 214 172 182 168 152 110 260 322 324 314 224 221 255 248 218 271 276 296 305 308 311 314 322 322 326